Weather reports worldwide

Advertisment
Kleine Brogel, Belgium (6479): temperature & dewpoint: 16.07.2019 04:00:00 - 22.07.2019 04:00:00 (CEST)Kleine Brogel, Belgium (6479): wind speed & gusts: 16.07.2019 04:00:00 - 22.07.2019 04:00:00 (CEST)Kleine Brogel, Belgium (6479): wind direction: 16.07.2019 04:00:00 - 22.07.2019 04:00:00 (CEST)Kleine Brogel, Belgium (6479): reduced air pressure: 16.07.2019 04:00:00 - 22.07.2019 04:00:00 (CEST)Kleine Brogel, Belgium (6479): visibility: 16.07.2019 04:00:00 - 22.07.2019 04:00:00 (CEST)
Date & Time tt [°C] td [°C] ff [km/h] ff [kn] fx [km/h] fx [kn] dd ppp [hPa] vv [km]
22.07.2019 04:00:00 14,8 13,5 0 0 0 0 N 1023,3 14
22.07.2019 03:00:00 14,8 13,6 0 0 0 0 N 1023,6 20
22.07.2019 02:00:00 14,8 13,5 4 2 - - N 1023,6 17
22.07.2019 01:00:00 15,0 13,3 4 2 0 0 N 1024,0 19
22.07.2019 00:00:00 15,8 13,3 4 2 4 2 N 1023,7 20
21.07.2019 23:00:00 16,8 12,9 4 2 - - N 1023,5 20
21.07.2019 22:00:00 18,7 12,8 2 1 11 6 - 1023,2 5
21.07.2019 21:00:00 20,7 13,2 7 4 14 8 N 1022,7 20
21.07.2019 20:00:00 22,7 13,1 7 4 - - N 1022,3 20
21.07.2019 19:00:00 24,5 12,5 4 2 18 10 N 1022,0 20
21.07.2019 18:00:00 25,2 10,8 7 4 29 16 W 1021,8 20
21.07.2019 17:00:00 26,0 11,7 14 8 - - SW 1021,8 20
21.07.2019 16:00:00 25,6 12,2 14 8 29 16 WSW 1021,8 20
21.07.2019 15:00:00 24,9 12,3 14 8 25 14 WSW 1021,8 20
21.07.2019 14:00:00 23,8 12,9 14 8 - - WSW 1021,7 20
21.07.2019 13:00:00 22,0 14,2 18 10 29 16 W 1022,7 20
21.07.2019 12:00:00 21,7 14,2 13 7 22 12 WSW 1021,3 10
21.07.2019 11:00:00 20,0 15,3 11 6 - - SW 1021,2 15
21.07.2019 10:00:00 18,4 14,7 11 6 18 10 SW 1020,6 14
21.07.2019 09:00:00 17,6 14,6 11 6 22 12 WSW 1020,0 19
21.07.2019 08:00:00 16,8 14,2 11 6 - - SW 1019,5 20
21.07.2019 07:00:00 16,1 13,7 11 6 22 12 SW 1018,7 20
21.07.2019 06:00:00 15,6 13,3 11 6 14 8 SW 1018,0 20
21.07.2019 05:00:00 15,0 13,0 7 4 - - SSW 1017,2 20
21.07.2019 04:00:00 15,3 13,1 7 4 14 8 SW 1016,8 20
21.07.2019 03:00:00 16,1 13,1 7 4 18 10 SW 1016,2 20
21.07.2019 02:00:00 16,8 13,2 7 4 - - SW 1016,0 20
21.07.2019 01:00:00 17,5 13,3 7 4 18 10 SW 1015,7 20
21.07.2019 00:00:00 18,4 13,2 11 6 18 10 WSW 1015,1 20
20.07.2019 23:00:00 19,0 13,0 11 6 - - WSW 1014,6 20
20.07.2019 22:00:00 20,6 12,7 14 8 36 19 WSW 1013,7 20
20.07.2019 21:00:00 22,8 14,7 25 14 32 18 WSW 1012,2 20
20.07.2019 20:00:00 23,7 17,5 18 10 - - SW 1011,3 20
20.07.2019 19:00:00 23,2 17,9 18 10 36 19 SW 1011,2 20
20.07.2019 18:00:00 23,7 18,0 18 10 32 18 SW 1010,7 20
20.07.2019 17:00:00 21,7 17,7 25 14 - - WSW 1010,8 20
20.07.2019 16:00:00 21,6 18,2 11 6 32 18 W 1010,3 20
20.07.2019 15:00:00 27,5 15,3 18 10 36 19 SSW 1009,3 20
20.07.2019 14:00:00 26,8 14,7 11 6 - - S 1010,1 20
20.07.2019 13:00:00 24,9 14,3 4 2 14 8 N 1010,3 20
20.07.2019 12:00:00 23,7 13,5 4 2 11 6 N 1010,3 20
20.07.2019 11:00:00 24,1 13,7 4 2 - - N 1010,6 20
20.07.2019 10:00:00 23,2 14,7 18 10 29 16 W 1010,7 20
20.07.2019 09:00:00 23,4 14,8 14 8 25 14 S 1010,1 20
20.07.2019 08:00:00 21,2 14,7 11 6 - - SSW 1010,2 20
20.07.2019 07:00:00 19,2 14,2 8 4 14 8 S 1010,3 10
20.07.2019 06:00:00 18,3 13,9 7 4 14 8 S 1010,6 20
20.07.2019 05:00:00 18,0 13,7 7 4 - - S 1011,1 20
20.07.2019 04:00:00 17,7 13,6 4 2 14 8 N 1011,3 20
20.07.2019 03:00:00 17,9 13,4 7 4 11 6 SSE 1011,7 20
20.07.2019 02:00:00 18,0 12,8 4 2 - - N 1012,2 20
20.07.2019 01:00:00 18,1 12,5 4 2 11 6 N 1012,7 20
20.07.2019 00:00:00 18,2 12,3 4 2 7 4 N 1013,2 20
19.07.2019 23:00:00 19,0 12,4 4 2 - - N 1013,2 20
19.07.2019 22:00:00 20,7 12,2 4 2 4 2 N 1013,3 20
19.07.2019 21:00:00 23,2 11,8 4 2 14 8 N 1013,3 20
19.07.2019 20:00:00 23,7 10,9 11 6 - - WSW 1013,6 20
19.07.2019 19:00:00 24,3 10,3 18 10 25 14 SW 1013,5 20
19.07.2019 18:00:00 25,0 10,6 11 6 25 14 SW 1013,7 20
19.07.2019 17:00:00 25,2 10,5 18 10 - - SW 1013,8 20
19.07.2019 16:00:00 25,1 11,5 11 6 25 14 SW 1014,2 20
19.07.2019 15:00:00 24,5 12,0 11 6 29 16 SW 1014,3 20
19.07.2019 14:00:00 23,9 12,1 11 6 - - SW 1014,3 20
19.07.2019 13:00:00 23,6 12,7 11 6 25 14 SW 1014,3 15
19.07.2019 12:00:00 22,9 13,5 11 6 25 14 SSW 1014,5 15
19.07.2019 11:00:00 21,2 13,7 14 8 - - SW 1014,7 15
19.07.2019 10:00:00 19,2 13,2 11 6 22 12 SSW 1014,7 15
19.07.2019 09:00:00 18,5 13,0 14 8 18 10 SW 1014,5 15
19.07.2019 08:00:00 18,0 13,4 7 4 - - WSW 1014,0 15
19.07.2019 07:00:00 15,8 13,8 4 2 7 4 N 1013,8 15
19.07.2019 06:00:00 15,8 14,2 4 2 11 6 N 1013,6 19
19.07.2019 05:00:00 17,1 14,3 7 4 - - SW 1013,5 20
19.07.2019 04:00:00 17,2 14,7 7 4 14 8 SW 1013,5 20
19.07.2019 03:00:00 17,3 14,6 7 4 11 6 SSW 1013,5 20
19.07.2019 02:00:00 17,3 14,5 4 2 - - N 1013,2 20
19.07.2019 01:00:00 17,5 14,4 4 2 7 4 N 1013,2 20
19.07.2019 00:00:00 17,8 14,3 4 2 7 4 N 1013,0 20
18.07.2019 23:00:00 18,6 14,1 4 2 - - N 1012,8 20
18.07.2019 22:00:00 19,3 13,7 11 6 29 16 WSW 1012,7 20
18.07.2019 21:00:00 20,2 13,8 14 8 29 16 W 1012,2 20
18.07.2019 20:00:00 22,5 13,2 14 8 - - WSW 1011,5 20
18.07.2019 19:00:00 22,6 12,6 14 8 25 14 WSW 1011,6 20
18.07.2019 18:00:00 23,2 12,5 14 8 29 16 SW 1011,5 20
18.07.2019 17:00:00 23,1 11,1 18 10 - - WSW 1011,6 20
18.07.2019 16:00:00 23,5 10,9 22 12 29 16 WSW 1011,7 20
18.07.2019 15:00:00 24,1 11,5 18 10 29 16 SW 1011,7 20
18.07.2019 14:00:00 23,3 11,1 18 10 - - SW 1011,6 20
18.07.2019 13:00:00 23,1 11,4 25 14 40 21 SW 1011,7 20
18.07.2019 12:00:00 23,4 10,3 18 10 29 16 SW 1011,6 20
18.07.2019 11:00:00 22,8 9,3 14 8 - - WSW 1011,7 20
18.07.2019 10:00:00 20,7 12,1 7 4 25 14 SW 1011,8 20
18.07.2019 09:00:00 20,3 12,4 18 10 25 14 SW 1012,0 17
18.07.2019 08:00:00 18,3 12,0 7 4 - - SSW 1011,7 15
18.07.2019 07:00:00 15,3 11,9 4 2 7 4 - 1011,8 10
18.07.2019 06:00:00 13,3 11,2 4 2 4 2 N 1012,1 13
18.07.2019 05:00:00 13,8 11,3 2 1 - - - 1012,1 7
18.07.2019 04:00:00 14,3 11,6 4 2 4 2 N 1012,5 14
18.07.2019 03:00:00 14,3 11,6 4 2 4 2 N 1013,0 19
18.07.2019 02:00:00 13,9 12,1 4 2 - - N 1013,2 18
18.07.2019 01:00:00 14,3 11,9 4 2 7 4 N 1013,3 19
18.07.2019 00:00:00 15,1 12,3 4 2 0 0 N 1013,5 18
17.07.2019 23:00:00 16,6 12,6 4 2 - - N 1013,6 20
17.07.2019 22:00:00 18,5 12,4 0 0 4 2 N 1013,7 6
17.07.2019 21:00:00 20,7 12,2 4 2 7 4 N 1013,7 20
17.07.2019 20:00:00 22,3 11,8 4 2 - - N 1013,7 20
17.07.2019 19:00:00 23,2 11,1 4 2 14 8 N 1013,8 20
17.07.2019 18:00:00 23,3 10,4 7 4 18 10 E 1014,2 20
17.07.2019 17:00:00 24,4 11,3 11 6 - - E 1014,7 20
17.07.2019 16:00:00 23,1 11,2 11 6 18 10 NE 1015,2 20
17.07.2019 15:00:00 23,8 11,2 7 4 18 10 NNE 1015,2 20
17.07.2019 14:00:00 23,2 11,5 7 4 - - N 1015,7 20
17.07.2019 13:00:00 21,7 11,5 4 2 14 8 N 1016,2 20
17.07.2019 12:00:00 20,0 11,1 7 4 14 8 NE 1016,6 20
17.07.2019 11:00:00 20,3 10,9 4 2 - - N 1016,6 20
17.07.2019 10:00:00 17,9 10,9 7 4 11 6 ENE 1016,8 20
17.07.2019 09:00:00 17,3 12,5 4 2 7 4 N 1016,8 8
17.07.2019 08:00:00 14,1 12,4 4 2 - - N 1016,8 7
17.07.2019 07:00:00 11,6 10,9 0 0 4 2 N 1017,1 4,0
17.07.2019 06:00:00 9,8 9,5 2 1 0 0 - 1017,3 4,0
17.07.2019 05:00:00 9,1 8,9 2 1 - - - 1017,2 4,6
17.07.2019 04:00:00 9,3 8,8 4 2 0 0 N 1017,3 0,2
17.07.2019 03:00:00 9,8 9,2 4 2 4 2 N 1017,7 2,2
17.07.2019 02:00:00 10,6 9,6 2 1 - - - 1017,8 0,6
17.07.2019 01:00:00 11,5 10,1 4 2 0 0 N 1018,1 4,8
17.07.2019 00:00:00 12,3 10,6 0 0 0 0 N 1018,2 11
16.07.2019 23:00:00 14,1 10,8 4 2 - - N 1018,2 19
16.07.2019 22:00:00 15,6 10,8 4 2 11 6 N 1018,1 20
16.07.2019 21:00:00 18,2 10,8 4 2 11 6 N 1018,0 20
16.07.2019 20:00:00 19,7 10,9 7 4 - - N 1018,0 20
16.07.2019 19:00:00 20,6 10,3 7 4 11 6 WNW 1018,1 20
16.07.2019 18:00:00 20,9 10,7 4 2 14 8 N 1018,3 20
16.07.2019 17:00:00 20,0 10,5 4 2 - - N 1018,8 20
16.07.2019 16:00:00 18,5 10,0 4 2 18 10 N 1019,5 20
16.07.2019 15:00:00 17,7 10,2 7 4 14 8 SW 1019,7 15
16.07.2019 14:00:00 17,4 10,3 7 4 - - WSW 1020,0 15
16.07.2019 13:00:00 16,4 10,7 7 4 14 8 W 1020,2 15
16.07.2019 12:00:00 16,0 11,0 8 4 - - WNW - 10
16.07.2019 11:00:00 14,8 11,3 8 4 - - WSW 1020,7 10
16.07.2019 10:00:00 14,6 12,1 4 2 7 4 N 1020,6 14
16.07.2019 09:00:00 13,2 12,2 5 3 7 4 SW 1020,6 10
16.07.2019 08:00:00 12,1 11,5 4 2 - - N 1020,6 14
16.07.2019 07:00:00 10,8 10,6 4 2 7 4 - 1020,3 10
16.07.2019 06:00:00 9,3 9,1 4 2 4 2 N 1020,2 8
16.07.2019 05:00:00 9,1 8,7 2 1 - - - 1020,2 3,1
16.07.2019 04:00:00 8,6 8,2 4 2 4 2 N 1020,5 0,2

tt = temperature
td = dewpoint
ff = wind speed
fx = gusts
dd = wind direction
ppp = reduced air pressure
vv = visibility

Next stations